CHINASAT 1A (ZX 1A)

Last updated on Tue Sep 26 2023 00:02:38 GMT+0000 (Coordinated Universal Time)

1 37804U 11047A 23268.60761532 -.00000055 00000+0 00000+0 0 9995 2 37804 1.1330 91.2289 0000790 114.2237 270.8680 1.00041930 17376

Satellite not in orbit

CHINASAT 1A (ZX 1A)